Location: Gebenbach
(49.5378°N, 11.8735°E)
Time: 03:29:29
(UTC+00:00)

CZ-4 R/B - Pass Details

Date: 29 October 2020
Orbit: 532 x 598 km, 97.7° (Epoch: 27 November)

Event Time Altitude Azimuth Distance (km) Brightness Sun altitude
Rises 17:23:57 0° 158° (SSE) 2,694 4.7 -14.9°
Reaches altitude 10° 17:26:05 10° 155° (SSE) 1,799 3.7 -15.3°
Maximum altitude 17:29:55 66° 74° (ENE) 591 1.2 -15.9°
Drops below altitude 10° 17:33:46 10° 352° (N) 1,797 4.0 -16.5°
Sets 17:35:53 0° 349° (N) 2,691 5.0 -16.8°
